Location: Newark
(48.5667°N, 7.8167°E)
Time: 21:28:11
(UTC+00:00)

ISS - Pass Details

Date: 24 September 2021
Orbit: 417 x 423 km, 51.6° (Epoch: 17 October)

Event Time Altitude Azimuth Distance (km) Brightness Sun altitude
Rises 20:29:18 0° 289° (WNW) 2,368 1.1 -29.7°
Reaches altitude 10° 20:31:24 10° 292° (WNW) 1,504 -0.1 -30.0°
Enters shadow 20:31:59 14° 293° (WNW) 1,274 -0.6 -30.1°
